#timestamp,LO_Frequency,Hit 
1499778015.9,286046892.2,N
1499778035.7,286046891.6,N
1499778055.5,286046891.4,N
1499778075.4,286046891.2,N
1499778095.2,286046894.0,N
1499778115.0,286046893.0,N
1499778115.9,286046893.0,N
1499778135.8,286046892.7,N
1499778155.6,286046891.5,N
1499778175.4,286046891.2,N
1499778195.3,286046895.4,N
1499778215.1,286046891.7,N
1499778216.0,286046891.7,N
1499778235.8,286046891.6,N
1499778255.6,286046891.3,N
1499778275.5,286046894.0,N
1499778295.3,286046893.9,N
1499778315.1,286046891.1,N
1499778335.9,286046894.0,N
1499778355.7,286046889.6,N
1499778375.5,286046890.4,N
1499778395.4,286046889.7,N
1499778415.2,286046889.9,N
1499778435.0,286046892.2,N
1499778435.9,286046892.2,N
1499778455.8,286046894.0,N
1499778475.6,286046891.0,N
1499778495.4,286046891.1,N
1499778515.3,286046893.6,N
1499778535.1,286046891.1,N
1499778536.0,286046891.1,N
1499778555.8,286046891.8,N
1499778575.7,286046890.5,N
1499778595.5,286046888.2,N
1499778615.3,286046889.3,N
1499778635.2,286046891.2,N
1499778655.9,286046889.8,N
1499778675.7,286046890.0,N
1499778695.6,286046887.8,N
1499778715.4,286046888.2,N
1499778735.2,286046888.1,N
1499778755.0,286046889.6,N
1499778756.0,286046889.6,N
1499778775.8,286046891.5,N
1499778795.6,286046889.7,N
1499778815.4,286046890.4,N
1499778835.3,286046889.7,N
1499778855.1,286046889.4,N
1499778875.8,286046890.1,N
1499778895.7,286046889.6,N
1499778915.5,286046890.1,N
1499778935.3,286046888.2,N
1499778955.2,286046888.2,N
1499778975.9,286046889.5,N
1499778995.7,286046889.5,N
1499779015.6,286046894.0,N
1499779035.4,286046891.9,N
1499779055.2,286046890.2,N
1499779075.1,286046890.3,N
1499779076.0,286046890.3,N
1499779095.8,286046890.6,N
1499779115.6,286046888.3,N
1499779135.4,286046889.0,N
1499779155.3,286046886.7,N
1499779175.1,286046886.3,N
1499779195.8,286046886.8,N
1499779215.7,286046885.0,N
1499779235.5,286046886.4,N
1499779255.3,286046886.1,N
1499779275.2,286046890.2,N
1499779295.9,286046890.4,N
1499779315.7,286046888.1,N
1499779335.6,286046886.7,N
1499779355.4,286046889.2,N
1499779375.2,286046888.8,N
1499779395.1,286046888.9,N
1499779396.0,286046888.9,N
1499779415.8,286046888.4,N
1499779435.6,286046889.0,N
1499779455.4,286046888.2,N
1499779475.3,286046888.4,N
1499779495.1,286046887.9,N
1499779515.8,286046887.9,N
1499779535.7,286046890.4,N
1499779555.5,286046888.0,N
1499779575.3,286046889.0,N
1499779595.2,286046886.8,N
1499779615.9,286046887.1,N
1499779635.7,286046886.5,N
1499779655.6,286046886.9,N
1499779675.4,286046886.4,N
1499779695.2,286046887.0,N
1499779715.1,286046887.5,N
1499779716.0,286046887.5,N
1499779735.8,286046887.5,N
1499779755.6,286046887.6,N
1499779775.5,286046887.2,N
1499779795.3,286046886.7,N
1499779815.1,286046887.4,N
1499779835.8,286046885.0,N
1499779855.7,286046885.0,N
1499779875.5,286046884.6,N
1499779895.3,286046884.8,N
1499779915.2,286046885.8,N
1499779935.9,286046887.2,N
1499779955.7,286046884.8,N
1499779975.6,286046887.5,N
1499779995.4,286046887.5,N
1499780015.2,286046887.4,N
1499780035.1,286046887.0,N
1499780036.0,286046887.0,N
1499780055.8,286046889.0,N
1499780075.6,286046888.1,N
1499780095.5,286046890.7,N
1499780115.3,286046890.2,N
1499780135.1,286046890.3,N
1499780155.8,286046888.3,N
1499780175.7,286046890.3,N
1499780195.5,286046888.0,N
1499780215.3,286046890.2,N
1499780235.2,286046888.1,N
1499780255.0,286046888.4,N
1499780255.9,286046888.4,N
1499780275.7,286046887.4,N
1499780295.6,286046886.7,N
1499780315.4,286046886.7,N
1499780335.2,286046886.1,N
1499780355.1,286046886.1,N
1499780356.0,286046886.1,N
1499780375.8,286046884.6,N
1499780395.6,286046885.7,N
1499780415.5,286046885.0,N
1499780435.3,286046885.0,N
1499780455.1,286046884.9,N
1499780475.9,286046886.8,N
1499780495.7,286046886.8,N
1499780515.5,286046887.2,N
1499780535.3,286046887.5,N
1499780555.2,286046884.5,N
1499780575.0,286046884.8,N
1499780575.9,286046884.8,N
1499780595.7,286046885.6,N
1499780615.6,286046881.7,N
1499780635.4,286046879.8,N
1499780655.2,286046882.2,N
1499780675.1,286046879.7,N
1499780676.0,286046879.7,N
1499780695.8,286046879.8,N
1499780715.6,286046880.1,N
1499780735.5,286046880.0,N
1499780755.3,286046882.7,N
1499780775.1,286046882.3,N
1499780795.9,286046882.2,N
1499780815.7,286046880.6,N
1499780835.5,286046881.2,N
1499780855.4,286046880.8,N
1499780875.2,286046880.4,N
1499780895.0,286046878.9,N
1499780895.9,286046878.9,N
1499780915.8,286046878.2,N
1499780935.6,286046878.2,N
1499780955.4,286046880.3,N
1499780975.2,286046878.7,N
1499780995.1,286046880.8,N
1499780996.0,286046880.8,N
1499781015.8,286046879.4,N
1499781035.6,286046879.2,N
1499781055.5,286046876.7,N
1499781075.3,286046876.9,N
1499781095.1,286046877.0,N
1499781115.9,286046877.1,N
1499781135.7,286046877.2,N
1499781155.5,286046877.2,N
1499781175.4,286046877.3,N
1499781195.2,286046877.4,N
1499781215.0,286046875.6,N
1499781215.9,286046875.6,N
1499781235.8,286046875.3,N
1499781255.6,286046877.7,N
1499781275.4,286046878.0,N
1499781295.2,286046874.9,N
1499781315.1,286046877.5,N
1499781316.0,286046877.5,N
1499781335.8,286046876.8,N
1499781355.6,286046876.5,N
1499781375.5,286046879.6,N
1499781395.3,286046875.3,N
1499781415.1,286046873.7,N
1499781435.9,286046874.0,N
1499781455.7,286046874.1,N
1499781475.5,286046873.9,N
1499781495.4,286046873.7,N
1499781515.2,286046873.3,N
1499781535.0,286046874.2,N
1499781535.9,286046874.2,N
1499781555.8,286046874.0,N
1499781575.6,286046876.3,N
1499781595.4,286046876.1,N
